Regional Weather Roundup
Issued by NWS

Home | Current Version | Previous Version | Graphics & Text | Print | Product List | Glossary On
Versions: 1 2 3 4 5 6 7 8 9 10 11 12 13 14 15 16 17 18 19 20 21 22 23 24 25 26 27 28 29 30 31 32 33 34 35 36 37 38 39 40 41 42 43 44 45 46 47 48 49 50
000
ASUS43 KMPX 281510
RWRMN
WEATHER ROUNDUP FOR MINNESOTA
NATIONAL WEATHER SERVICE TWIN CITIES/CHANHASSEN MN
900 AM CST FRI NOV 28 2014


NOTE: "FAIR" INDICATES FEW OR NO CLOUDS BELOW 12,000 FEET WITH NO
SIGNIFICANT WEATHER AND/OR OBSTRUCTIONS TO VISIBILITY. N/A MEANS
CURRENT SKY AND/OR WEATHER CONDITIONS ARE NOT AVAILABLE.

MNZ060>063-068>070-281600-
   Twin Cities Metro

CITY           SKY/WX    TMP DP  RH WIND       PRES   REMARKS
TWIN CITIES    CLOUDY    14   9  80 E12       29.98F WCI   0
ST PAUL        CLOUDY    16   9  74 SE10      30.01F WCI   4
CRYSTAL        CLOUDY    16   9  74 SE5       29.98F WCI   9
BLAINE         CLOUDY    16  10  79 E8        29.98F WCI   5
LAKEVILLE      MOSUNNY   12   7  79 SE7       29.98S WCI   2
EDEN PRAIRIE   CLOUDY    15   9  76 SE9       29.97F WCI   3
SOUTH ST PAUL  CLOUDY    16  10  75 SE7       29.99F WCI   6
LAKE ELMO      CLOUDY    18  12  79 SE7       30.00F WCI   8
$$
MNZ001>005-007-008-013>017-022>024-027-028-281600-
   Northwest Minnesota

CITY           SKY/WX    TMP DP  RH WIND       PRES   REMARKS
BEMIDJI        LGT SNOW   9   5  83 SE6       29.95S WCI  -1
HALLOCK        LGT SNOW  12   7  79 E7        29.98S WCI   2
ROSEAU         MOCLDY     9   3  78 E8        29.98F WCI  -4
WARROAD        PTCLDY     9   1  72 E8        29.98F WCI  -4
THIEF RVR FALL CLOUDY    10   7  85 E12       29.94F WCI  -4
CROOKSTON      MOCLDY    12   9  85 SE8       29.96F WCI   1
FOSSTON        FLURRIES   9   5  85 E7        29.94F WCI  -3
DETROIT LAKES  FLURRIES  10   7  85 SE10      29.93F WCI  -3
MOORHEAD       MIX PCPN  14   9  79 E8        29.94F WCI   3
PARK RAPIDS    CLOUDY     9   5  84 SE9       29.93F WCI  -4
MAHNOMEN       LGT SNOW  10   5  79 SE8       29.93S WCI  -1
$$
MNZ006-009>011-018-025>026-281600-
   North Central Minnesota

CITY           SKY/WX    TMP DP  RH WIND       PRES   REMARKS
BAUDETTE       CLOUDY     6   0  76 E8        29.98F WCI  -7
FLAG ISLAND    CLOUDY     3   0  85 E3        29.99F
INTL FALLS     CLOUDY     6   0  76 E7        30.01F WCI  -6
WASKISH        LGT SNOW  10   7  85 CALM      29.98S
BIG FORK       LGT SNOW  10   5  79 SE6       29.97F WCI   1
LONGVILLE      FLURRIES   9   5  85 SE3       29.96F
GRAND RAPIDS   CLOUDY     7   3  85 E3        29.97F
CRANE LAKE     FLURRIES   7   1  78 CALM      30.05S
ORR            FLURRIES   9   1  72 CALM      29.98F
COOK           FLURRIES   9   3  78 SE6       30.00F WCI  -1
WALKER         FLURRIES   9   5  82 SE3       29.95F
$$
MNZ012-019>021-037-281600-
   Northeast Minnesota

CITY           SKY/WX    TMP DP  RH WIND       PRES   REMARKS
DULUTH         LGT SNOW  10   6  84 E6        30.00F WCI   0
ELY            LGT SNOW   9   3  78 CALM      30.01S
HIBBING        LGT SNOW   9   3  77 E6        30.00S WCI  -1
EVELETH        LGT SNOW  10   5  79 E5        30.01F WCI   2
DULUTH HARBOR  FLURRIES  12   9  85 CALM      30.08S
TWO HARBORS    LGT SNOW  14   9  79 CALM      30.03S VSB 3/4
SILVER BAY     LGT SNOW  14   9  79 CALM      30.04S VSB 3/4
GRAND MARAIS     N/A     18  10  71 N3        30.09F
G MARAIS ARPRT CLOUDY     9   1  72 CALM      29.99F
$$
MNZ029>031-032-039>041-046>048-054>057-064-281600-
   West Central Minnesota

CITY           SKY/WX    TMP DP  RH WIND       PRES   REMARKS
FERGUS FALLS   MOCLDY    10   3  72 SE10      29.95F WCI  -3
WHEATON        MOCLDY     9   5  85 SE14      29.92F WCI  -8
MORRIS         PTSUNNY   12   7  79 SE12      29.91S WCI  -2
ALEXANDRIA     CLOUDY    10   6  84 E9        29.92S WCI  -3
ELBOW LAKE     FLURRIES  11   6  79 SE8       29.91F WCI  -1
WADENA         FLURRIES   9   3  78 E9        29.93F WCI  -5
GLENWOOD       MOSUNNY   10   7  85 E10       29.93R WCI  -3
APPLETON       PTSUNNY   12   7  79 E10       29.92R WCI  -1
BENSON         CLOUDY    12   7  79 SE9       29.93R WCI   0
ORTONVILLE     CLOUDY    10   5  79 SE9       29.89F WCI  -2
MADISON        CLOUDY    16  10  79 E6        29.91R WCI   7
WILLMAR        FAIR      12   7  79 E10       29.93R WCI  -1
$$
MNZ033>034-036-042>043-049>051-058-059-281600-
   Central Minnesota

CITY           SKY/WX    TMP DP  RH WIND       PRES   REMARKS
ST CLOUD       CLOUDY    13   7  77 NE6       29.98S HAZE    WCI   4
SAUK CENTRE    FLURRIES  10   6  84 E8        29.94S WCI  -2
PAYNESVILLE    CLOUDY    10   6  84 NE7       29.95R WCI  -1
AITKIN         LGT SNOW  12   7  79 CALM      29.98S
PINE RIVER     FLURRIES   9   5  85 E9        30.00F WCI  -5
BRAINERD       CLOUDY     9   5  84 SE6       29.99R FOG     WCI  -1
STAPLES        FLURRIES   9   5  85 SE6       29.95F WCI  -1
LONG PRAIRIE   LGT SNOW   9   5  85 E8        29.93F WCI  -4
LITTLE FALLS   LGT SNOW  10   5  79 E5        29.99S WCI   2
LITCHFIELD     CLOUDY    12   9  85 E10       29.94F WCI  -1
BUFFALO        CLOUDY    15   9  76 E6        29.98F WCI   6
MAPLE LAKE     CLOUDY    15  10  82 E7        29.96F WCI   5
$$
MNZ037-044-045-052-053-281600-
   East Central Minnesota

CITY           SKY/WX    TMP DP  RH WIND       PRES   REMARKS
PRINCETON      LGT SNOW  12   9  85 CALM      29.99S
MORA             N/A    N/A N/A N/A MISG        N/A
CAMBRIDGE      LGT SNOW  14   7  73 E3        29.99S
RUSH CITY      CLOUDY    12   8  82 CALM      30.02S
MOOSE LAKE     LGT SNOW  10   7  85 SE3       30.01S
HINCKLEY       LGT SNOW  12   9  85 CALM      30.01F
CLOQUET        LGT SNOW   9   5  85 E3        30.01R
MCGREGOR       CLOUDY    12   9  85 SE6       30.00F WCI   3
$$
MNZ071>073-080-081-089-090-097-098-281600-
   Southwest Minnesota

CITY           SKY/WX    TMP DP  RH WIND       PRES   REMARKS
MONTEVIDEO     PTSUNNY   10   9  92 SE8       29.91S WCI  -1
GRANITE FALLS  CLOUDY    13   8  81 E5        29.91F WCI   5
CANBY          CLOUDY    13  10  87 SE6       29.87F WCI   4
MARSHALL       CLOUDY    12   9  85 SE6       29.88S WCI   3
REDWOOD FALLS  CLOUDY    14   8  77 E8        29.90F WCI   3
OLIVIA         PTSUNNY   12   9  85 E10       29.90F WCI  -1
PIPESTONE      CLOUDY    19  18  93 SE8       29.80F WCI   9
WINDOM         CLOUDY    16  12  86 SE12      29.86R WCI   3
WORTHINGTON    CLOUDY    18  16  93 SE6       29.85R WCI   9
JACKSON        CLOUDY    19  14  79 SE6       29.87R WCI  11
TRACY          CLOUDY    17  13  86 S7        29.86S WCI   7
SLAYTON        CLOUDY    15  13  92 CALM      29.85S
$$
MNZ065>067-074>077-082>085-091>093-281600-
   South Central Minnesota

CITY           SKY/WX    TMP DP  RH WIND       PRES   REMARKS
MANKATO        PTSUNNY   16   7  67 SE15      29.92F WCI   1
NEW ULM        PTSUNNY   12   9  85 SE5       29.92S WCI   4
ST JAMES       CLOUDY    18  12  79 SE12      29.91F WCI   5
FAIRMONT       CLOUDY    18  12  79 SE12      29.88F WCI   5
GLENCOE        MOSUNNY   14  10  82 E8        29.94F WCI   3
FARIBAULT      MOSUNNY   16   9  73 SE9       29.95F WCI   4
OWATONNA       MOSUNNY   16   9  73 SE16G24   29.93F WCI   0
WASECA         MOSUNNY   18   9  68 SE14      29.95F WCI   4
ALBERT LEA     PTSUNNY   16  10  79 S14G20    29.93F WCI   1
$$
MNZ078>079-086>088-094>096-281600-
   Southeast Minnesota

CITY           SKY/WX    TMP DP  RH WIND       PRES   REMARKS
ROCHESTER      MOSUNNY   15   8  73 S18       29.96F WCI  -2
RED WING       MOSUNNY   19  10  68 SE9       30.01F WCI   9
STANTON        MOSUNNY   18   9  68 SE8       29.97F WCI   7
DODGE CENTER   MOSUNNY   16  10  79 S15       29.94S WCI   1
WINONA         MOSUNNY   19  12  73 SE9       30.05F WCI   9
AUSTIN         MOSUNNY   16   9  73 S10G16    29.96S WCI   3
PRESTON        MOSUNNY   15   8  75 S13G18    29.99S WCI   1
$$
ABBREVIATIONS USED IN REMARKS
   TC - TEMPERATURES IN CELSIUS
  WCI - WIND CHILL INDEX
   HX - HEAT INDEX
  VSB - VISIBILITY
$$



USA.gov is the U.S. government's official web portal to all federal, state and local government web resources and services.